Location: Alphen aan den Rijn
(52.1277°N, 4.6689°E)
Time: 06:34:53
(UTC+01:00)

ISS - Pass Details

Date: 29 October 2021
Orbit: 417 x 423 km, 51.6° (Epoch: 01 December)

Event Time Altitude Azimuth Distance (km) Brightness Sun altitude
Exits shadow 07:50:46 - 269° (W) 1,637 -1.4 -6.8°
Reaches altitude 10° 07:51:05 10° 269° (W) 1,504 -1.6 -6.7°
Maximum altitude 07:54:28 85° 181° (S) 427 -3.7 -6.2°
Drops below altitude 10° 07:57:50 10° 93° (E) 1,501 0.7 -5.7°
Sets 07:59:56 0° 93° (E) 2,363 2.1 -5.4°
